Time,TemperatureF,DewpointF,PressureIn,WindDirection,WindDirectionDegrees,WindSpeedMPH,WindSpeedGustMPH,Humidity,HourlyPrecipIn,Conditions,Clouds,dailyrainin,SoftwareType,DateUTC
2013-11-03 00:03:00,50.0,25.0,29.98,ESE,113,5.0,12.0,38,0.00,,,0.00,,2013-11-03 05:03:00,
2013-11-03 00:13:00,50.0,25.0,29.98,ESE,113,5.0,12.0,38,0.00,,,0.00,,2013-11-03 05:13:00,
2013-11-03 00:23:00,50.0,26.0,29.97,ESE,112,5.0,12.0,39,0.00,,,0.00,,2013-11-03 05:23:00,
2013-11-03 00:34:00,50.0,26.0,29.97,ESE,112,5.0,12.0,39,0.00,,,0.00,,2013-11-03 05:34:00,
2013-11-03 00:43:00,50.0,26.0,29.97,ESE,112,5.0,12.0,39,0.00,,,0.00,,2013-11-03 05:43:00,
2013-11-03 00:53:00,47.0,25.0,29.97,ENE,61,1.0,6.0,42,0.00,,,0.00,,2013-11-03 05:53:00,
2013-11-03 01:03:00,47.0,25.0,29.97,ENE,61,1.0,6.0,42,0.00,,,0.00,,2013-11-03 06:03:00,
2013-11-03 01:12:00,47.0,25.0,29.97,ENE,61,1.0,6.0,42,0.00,,,0.00,,2013-11-03 06:12:00,
2013-11-03 01:23:00,40.0,24.0,30.00,North,7,1.0,3.0,52,0.00,,,0.00,,2013-11-03 06:23:00,
2013-11-03 01:32:00,40.0,24.0,30.00,North,7,1.0,3.0,52,0.00,,,0.00,,2013-11-03 06:32:00,
2013-11-03 01:43:00,40.0,24.0,30.00,North,7,1.0,3.0,52,0.00,,,0.00,,2013-11-03 06:43:00,
2013-11-03 01:53:00,41.0,25.0,29.97,ENE,71,2.0,7.0,53,0.00,,,0.00,,2013-11-03 06:53:00,
2013-11-03 01:01:00,41.0,25.0,29.97,ENE,71,2.0,7.0,53,0.00,,,0.00,,2013-11-03 07:01:00,
2013-11-03 01:11:00,41.0,25.0,29.97,ENE,71,2.0,7.0,53,0.00,,,0.00,,2013-11-03 07:11:00,
2013-11-03 01:22:00,51.0,26.0,29.91,ESE,110,6.0,12.0,38,0.00,,,0.00,,2013-11-03 07:22:00,
2013-11-03 01:32:00,51.0,26.0,29.91,ESE,110,6.0,12.0,38,0.00,,,0.00,,2013-11-03 07:32:00,
2013-11-03 01:42:00,51.0,26.0,29.91,ESE,110,6.0,12.0,38,0.00,,,0.00,,2013-11-03 07:42:00,
2013-11-03 01:52:00,51.0,26.0,29.91,ESE,110,6.0,12.0,38,0.00,,,0.00,,2013-11-03 07:52:00,
2013-11-03 02:11:00,51.0,27.0,29.91,ENE,75,3.0,12.0,39,0.00,,,0.00,,2013-11-03 08:11:00,
2013-11-03 02:21:00,51.0,27.0,29.91,ENE,75,3.0,12.0,39,0.00,,,0.00,,2013-11-03 08:21:00,
2013-11-03 02:42:00,49.0,28.0,29.90,NNE,28,2.0,12.0,44,0.00,,,0.00,,2013-11-03 08:42:00,
2013-11-03 02:52:00,49.0,28.0,29.90,NNE,28,2.0,12.0,44,0.00,,,0.00,,2013-11-03 08:52:00,
2013-11-03 03:12:00,50.0,29.0,29.88,ESE,117,5.0,12.0,44,0.00,,,0.00,,2013-11-03 09:12:00,
2013-11-03 03:22:00,50.0,29.0,29.88,ESE,117,5.0,12.0,44,0.00,,,0.00,,2013-11-03 09:22:00,
2013-11-03 03:42:00,50.0,28.0,29.86,ESE,117,3.0,14.0,43,0.00,,,0.00,,2013-11-03 09:42:00,
2013-11-03 03:53:00,50.0,28.0,29.86,ESE,117,3.0,14.0,43,0.00,,,0.00,,2013-11-03 09:53:00,
2013-11-03 04:13:00,51.0,26.0,29.85,SE,124,3.0,20.0,38,0.00,,,0.00,,2013-11-03 10:13:00,
2013-11-03 04:23:00,51.0,26.0,29.85,SE,124,3.0,20.0,38,0.00,,,0.00,,2013-11-03 10:23:00,
2013-11-03 04:42:00,48.0,28.0,29.84,ENE,62,5.0,12.0,45,0.00,,,0.00,,2013-11-03 10:42:00,
2013-11-03 04:53:00,48.0,28.0,29.84,ENE,62,5.0,12.0,45,0.00,,,0.00,,2013-11-03 10:53:00,
2013-11-03 05:12:00,48.0,28.0,29.87,East,85,6.0,12.0,46,0.00,,,0.00,,2013-11-03 11:12:00,
2013-11-03 05:22:00,48.0,28.0,29.87,East,85,6.0,12.0,46,0.00,,,0.00,,2013-11-03 11:22:00,
2013-11-03 05:43:00,52.0,26.0,29.83,SW,215,5.0,12.0,36,0.00,,,0.00,,2013-11-03 11:43:00,
2013-11-03 05:52:00,52.0,26.0,29.83,SW,215,5.0,12.0,36,0.00,,,0.00,,2013-11-03 11:52:00,
2013-11-03 06:12:00,55.0,25.0,29.82,WSW,254,2.0,12.0,31,0.00,,,0.00,,2013-11-03 12:12:00,
2013-11-03 06:42:00,54.0,26.0,29.83,NE,55,3.0,14.0,34,0.00,,,0.00,,2013-11-03 12:42:00,
2013-11-03 07:12:00,52.0,28.0,29.86,East,80,3.0,8.0,40,0.00,,,0.00,,2013-11-03 13:12:00,
2013-11-03 07:21:00,52.0,28.0,29.86,East,80,3.0,8.0,40,0.00,,,0.00,,2013-11-03 13:21:00,
2013-11-03 07:42:00,51.0,30.0,29.89,South,169,2.0,8.0,44,0.00,,,0.00,,2013-11-03 13:42:00,
2013-11-03 07:52:00,51.0,30.0,29.89,South,169,2.0,8.0,44,0.00,,,0.00,,2013-11-03 13:52:00,
2013-11-03 08:12:00,51.0,35.0,29.92,West,268,5.0,12.0,55,0.00,,,0.00,,2013-11-03 14:12:00,
2013-11-03 08:22:00,51.0,35.0,29.92,West,268,5.0,12.0,55,0.00,,,0.00,,2013-11-03 14:22:00,
2013-11-03 08:42:00,50.0,38.0,29.91,SSE,164,4.0,12.0,64,0.00,,,0.00,,2013-11-03 14:42:00,
2013-11-03 08:52:00,50.0,38.0,29.91,SSE,164,4.0,12.0,64,0.00,,,0.00,,2013-11-03 14:52:00,
2013-11-03 09:11:00,48.0,39.0,29.91,North,359,5.0,12.0,72,0.01,,,0.01,,2013-11-03 15:11:00,
2013-11-03 09:22:00,48.0,39.0,29.91,North,359,5.0,12.0,72,0.01,,,0.01,,2013-11-03 15:22:00,
2013-11-03 09:43:00,49.0,40.0,29.90,North,357,1.0,12.0,70,0.01,,,0.01,,2013-11-03 15:43:00,
2013-11-03 09:53:00,49.0,40.0,29.90,North,357,1.0,12.0,70,0.01,,,0.01,,2013-11-03 15:53:00,
2013-11-03 10:13:00,52.0,41.0,29.89,NE,55,3.0,6.0,65,0.00,,,0.01,,2013-11-03 16:13:00,
2013-11-03 10:23:00,52.0,41.0,29.89,NE,55,3.0,6.0,65,0.00,,,0.01,,2013-11-03 16:23:00,
2013-11-03 10:43:00,53.0,41.0,29.89,ENE,75,3.0,8.0,64,0.00,,,0.01,,2013-11-03 16:43:00,
2013-11-03 10:53:00,53.0,41.0,29.89,ENE,75,3.0,8.0,64,0.00,,,0.01,,2013-11-03 16:53:00,
2013-11-03 11:13:00,54.0,40.0,29.89,SSW,213,7.0,13.0,59,0.00,,,0.01,,2013-11-03 17:13:00,
2013-11-03 11:23:00,54.0,40.0,29.89,SSW,213,7.0,13.0,59,0.00,,,0.01,,2013-11-03 17:23:00,
2013-11-03 11:44:00,54.0,39.0,29.89,South,178,4.0,17.0,57,0.00,,,0.01,,2013-11-03 17:44:00,
2013-11-03 11:53:00,54.0,39.0,29.89,South,178,4.0,17.0,57,0.00,,,0.01,,2013-11-03 17:53:00,
2013-11-03 12:11:00,56.0,40.0,29.92,SW,229,3.0,16.0,55,0.00,,,0.01,,2013-11-03 18:11:00,
2013-11-03 13:11:00,57.0,44.0,29.79,SSW,213,9.0,18.0,61,0.00,,,0.01,,2013-11-03 19:11:00,
2013-11-03 13:22:00,57.0,44.0,29.79,SSW,213,9.0,18.0,61,0.00,,,0.01,,2013-11-03 19:22:00,
2013-11-03 13:42:00,56.0,44.0,29.78,WSW,237,6.0,20.0,63,0.00,,,0.01,,2013-11-03 19:42:00,
2013-11-03 13:53:00,56.0,44.0,29.78,WSW,237,6.0,20.0,63,0.00,,,0.01,,2013-11-03 19:53:00,
2013-11-03 14:11:00,56.0,44.0,29.79,WSW,246,5.0,14.0,64,0.00,,,0.01,,2013-11-03 20:11:00,
2013-11-03 14:22:00,56.0,44.0,29.79,WSW,246,5.0,14.0,64,0.00,,,0.01,,2013-11-03 20:22:00,
2013-11-03 15:43:00,58.0,43.0,29.75,SW,236,6.0,10.0,57,0.00,,,0.01,,2013-11-03 21:43:00,
2013-11-03 15:55:00,58.0,43.0,29.75,SW,236,6.0,10.0,57,0.00,,,0.01,,2013-11-03 21:55:00,
2013-11-03 16:12:00,56.0,42.0,29.75,NW,316,2.0,13.0,59,0.00,,,0.01,,2013-11-03 22:12:00,
2013-11-03 16:22:00,56.0,42.0,29.75,NW,316,2.0,13.0,59,0.00,,,0.01,,2013-11-03 22:22:00,
2013-11-03 16:43:00,57.0,42.0,29.76,WSW,251,3.0,14.0,57,0.00,,,0.01,,2013-11-03 22:43:00,
2013-11-03 16:52:00,57.0,42.0,29.76,WSW,251,3.0,14.0,57,0.00,,,0.01,,2013-11-03 22:52:00,
2013-11-03 17:12:00,59.0,42.0,29.72,SSW,209,1.0,7.0,53,0.00,,,0.01,,2013-11-03 23:12:00,
2013-11-03 17:42:00,56.0,42.0,29.74,SSW,193,1.0,3.0,60,0.00,,,0.01,,2013-11-03 23:42:00,
2013-11-03 17:53:00,56.0,42.0,29.74,SSW,193,1.0,3.0,60,0.00,,,0.01,,2013-11-03 23:53:00,
2013-11-03 18:11:00,55.0,43.0,29.75,North,356,2.0,6.0,63,0.00,,,0.01,,2013-11-04 00:11:00,
2013-11-03 18:22:00,55.0,43.0,29.75,North,356,2.0,6.0,63,0.00,,,0.01,,2013-11-04 00:22:00,
2013-11-03 18:42:00,54.0,43.0,29.75,NW,316,1.0,5.0,66,0.00,,,0.01,,2013-11-04 00:42:00,
2013-11-03 18:52:00,54.0,43.0,29.75,NW,316,1.0,5.0,66,0.00,,,0.01,,2013-11-04 00:52:00,
2013-11-03 19:22:00,52.0,43.0,29.75,NE,37,0.0,5.0,70,0.00,,,0.01,,2013-11-04 01:22:00,
2013-11-03 19:32:00,52.0,43.0,29.75,NE,37,0.0,5.0,70,0.00,,,0.01,,2013-11-04 01:32:00,
2013-11-03 19:42:00,52.0,43.0,29.75,NE,37,0.0,5.0,70,0.00,,,0.01,,2013-11-04 01:42:00,
2013-11-03 19:52:00,50.0,41.0,29.78,NE,37,1.0,3.0,72,0.00,,,0.01,,2013-11-04 01:52:00,
2013-11-03 20:02:00,50.0,41.0,29.78,NE,37,1.0,3.0,72,0.00,,,0.01,,2013-11-04 02:02:00,
2013-11-03 20:12:00,50.0,41.0,29.78,NE,37,1.0,3.0,72,0.00,,,0.01,,2013-11-04 02:12:00,
2013-11-03 20:22:00,52.0,41.0,29.81,SSW,203,0.0,7.0,65,0.00,,,0.01,,2013-11-04 02:22:00,
2013-11-03 20:32:00,52.0,41.0,29.81,SSW,203,0.0,7.0,65,0.00,,,0.01,,2013-11-04 02:32:00,
2013-11-03 20:42:00,52.0,41.0,29.81,SSW,203,0.0,7.0,65,0.00,,,0.01,,2013-11-04 02:42:00,
2013-11-03 20:53:00,51.0,40.0,29.83,SSW,205,1.0,3.0,67,0.00,,,0.01,,2013-11-04 02:53:00,
2013-11-03 21:02:00,51.0,40.0,29.83,SSW,205,1.0,3.0,67,0.00,,,0.01,,2013-11-04 03:02:00,
2013-11-03 21:11:00,51.0,40.0,29.83,SSW,205,1.0,3.0,67,0.00,,,0.01,,2013-11-04 03:11:00,
2013-11-03 21:21:00,52.0,43.0,29.81,ENE,76,0.0,5.0,72,0.00,,,0.01,,2013-11-04 03:21:00,
2013-11-03 21:34:00,52.0,43.0,29.81,ENE,76,0.0,5.0,72,0.00,,,0.01,,2013-11-04 03:34:00,
2013-11-03 21:44:00,52.0,43.0,29.81,ENE,76,0.0,5.0,72,0.00,,,0.01,,2013-11-04 03:44:00,
2013-11-03 21:54:00,51.0,44.0,29.80,ENE,76,1.0,2.0,77,0.00,,,0.01,,2013-11-04 03:54:00,
2013-11-03 22:04:00,51.0,44.0,29.80,ENE,76,1.0,2.0,77,0.00,,,0.01,,2013-11-04 04:04:00,
2013-11-03 22:13:00,51.0,44.0,29.80,ENE,76,1.0,2.0,77,0.00,,,0.01,,2013-11-04 04:13:00,
2013-11-03 22:24:00,50.0,43.0,29.79,ENE,76,0.0,3.0,78,0.00,,,0.01,,2013-11-04 04:24:00,
2013-11-03 22:34:00,50.0,43.0,29.79,ENE,76,0.0,3.0,78,0.00,,,0.01,,2013-11-04 04:34:00,
2013-11-03 22:43:00,50.0,43.0,29.79,ENE,76,0.0,3.0,78,0.00,,,0.01,,2013-11-04 04:43:00,
2013-11-03 22:53:00,51.0,44.0,29.77,West,265,0.0,6.0,76,0.00,,,0.01,,2013-11-04 04:53:00,
2013-11-03 23:03:00,51.0,44.0,29.77,West,265,0.0,6.0,76,0.00,,,0.01,,2013-11-04 05:03:00,
2013-11-03 23:23:00,51.0,45.0,29.77,West,281,0.0,3.0,79,0.00,,,0.01,,2013-11-04 05:23:00,
2013-11-03 23:34:00,51.0,45.0,29.77,West,281,0.0,3.0,79,0.00,,,0.01,,2013-11-04 05:34:00,
2013-11-03 23:44:00,51.0,45.0,29.77,West,281,0.0,3.0,79,0.00,,,0.01,,2013-11-04 05:44:00,
2013-11-03 23:53:00,51.0,45.0,29.76,SE,141,2.0,8.0,81,0.00,,,0.01,,2013-11-04 05:53:00,